Temperature
9 8 8 8 8 8 8 8 8 8 8 9 9 9 10 10 11 11 11 11 12 12 12 12 12 12 12 13 13 12 12 12 12 12 12 13 13 12 13 13 13 13 13
8 7 7 7 7 7 7 7 7 8 8 8 8 8 9 9 10 10 11 11 11 11 11 12 12 12 12 12 12 12 12 12 12 12 11 11 12 12 12 12 12 12 12
7 6 6 7 7 7 7 7 7 7 7 8 8 8 8 9 9 10 10 10 11 11 11 11 11 11 11 11 11 11 12 11 11 11 11 11 11 11 11 11 11 11 12
6 6 6 6 6 6 6 6 6 7 7 7 7 8 8 8 9 9 9 10 10 10 10 10 10 11 11 11 11 11 11 11 11 11 11 11 11 11 10 11 11 11 11
5 5 5 5 5 5 5 6 6 6 6 7 7 7 7 7 8 8 8 9 9 9 10 10 10 10 10 10 10 10 10 10 10 10 10 10 10 10 10 10 10 10 10
5 5 5 5 5 5 5 5 5 6 6 6 6 6 7 7 7 7 8 8 8 9 9 9 10 10 10 10 10 10 10 10 10 10 10 10 10 10 10 10 10 10 10
5 4 4 4 4 5 5 5 5 5 5 6 6 6 6 6 7 7 7 7 8 8 8 8 9 9 9 9 9 9 9 9 9 9 9 9 9 9 9 9 9 9 9
4 4 4 4 4 4 4 4 5 5 5 5 5 5 5 6 6 6 6 7 7 7 7 8 8 8 8 9 9 9 9 9 9 9 9 9 9 9 9 9 8 8 8
4 4 4 4 4 4 4 4 4 5 5 5 5 5 5 5 5 6 6 6 6 6 7 7 7 8 8 8 8 8 8 8 8 8 8 8 8 8 8 8 8 7 7
4 4 3 3 3 3 4 4 4 4 4 4 4 5 5 5 5 5 5 6 6 6 6 7 7 7 7 7 7 7 7 7 7 7 7 7 8 7 7 7 7 7 7
4 4 3 3 3 3 3 4 4 4 4 4 4 4 4 5 5 5 5 5 6 6 6 6 6 6 6 6 6 6 6 6 6 7 7 7 7 7 7 7 7 6 6
4 4 3 3 3 3 3 3 3 4 4 4 4 4 4 4 5 5 5 5 5 5 5 5 6 6 5 5 6 6 6 6 6 6 6 6 6 6 6 6 6 6 6
4 3 3 3 3 3 3 3 3 3 3 3 3 3 4 4 4 4 4 4 5 5 5 5 5 5 5 5 5 5 5 5 5 5 5 5 5 6 6 6 5 5 5
4 3 3 3 3 2 2 2 3 3 3 3 3 3 3 3 3 4 4 4 4 4 4 4 4 4 4 4 4 4 4 5 5 5 5 5 5 5 5 5 5 5 4
4 3 3 2 2 2 2 2 2 2 2 3 3 3 3 3 3 3 3 3 3 3 3 3 3 3 3 3 4 4 4 4 4 4 4 4 4 4 4 4 4 4 4
4 3 3 2 2 2 2 2 2 2 2 2 2 2 2 2 3 3 3 3 3 3 3 3 3 3 3 3 3 3 3 3 3 3 3 3 3 3 3 3 3 3 3
4 3 3 2 2 2 2 2 2 2 2 2 1 1 1 2 2 2 2 2 2 2 2 2 2 2 2 2 2 2 2 2 2 2 2 2 2 2 2 2 2 2 2
4 3 3 3 2 2 2 2 2 1 1 1 1 1 1 1 1 1 1 1 1 1 1 1 1 1 1 1 2 2 2 2 2 1 1 2 2 1 1 2 2 2 2
4 4 3 3 2 2 2 2 2 1 1 1 1 1 0 0 0 1 1 1 1 1 1 1 1 1 1 1 1 1 1 1 1 1 1 1 1 1 1 1 1 1 1
4 4 3 3 2 2 2 2 1 1 1 1 1 1 0 0 0 0 0 0 1 0 0 0 0 0 1 1 1 1 1 1 1 1 1 0 0 0 0 0 0 0 0
4 4 3 3 2 2 2 1 1 1 1 1 1 1 0 0 0 0 0 0 0 0 0 0 0 0 0 0 0 0 0 -0 -0 0 0 0 -0 -0 -0 -0 -0 -0 -0
4 3 3 3 2 2 2 1 1 1 1 1 0 0 0 0 0 0 -0 -0 -0 -0 -0 -0 -0 -0 -0 -0 -0 -0 -1 -1 -1 -1 -0 -0 -0 -0 -0 -0 -0 -1 -1
4 3 3 3 2 2 2 1 1 1 0 0 0 0 -0 -0 -0 -0 -0 -1 -1 -1 -1 -1 -1 -1 -1 -1 -1 -1 -1 -1 -1 -1 -1 -1 -0 -0 -0 -1 -1 -1 -1
3 3 3 3 2 2 2 1 1 0 0 0 -0 -0 -0 -1 -1 -1 -1 -1 -1 -1 -2 -2 -2 -2 -2 -2 -2 -1 -1 -1 -1 -1 -1 -1 -1 -1 -1 -1 -1 -1 -2
3 3 2 2 2 2 2 1 1 0 0 -0 -0 -0 -1 -1 -1 -1 -1 -1 -1 -2 -2 -2 -2 -2 -2 -2 -2 -2 -2 -2 -2 -1 -1 -1 -1 -1 -1 -1 -2 -2 -2
3 2 2 2 2 1 1 1 1 0 -0 -1 -1 -1 -1 -1 -1 -1 -1 -2 -2 -2 -2 -2 -3 -3 -2 -2 -2 -2 -2 -2 -2 -2 -2 -2 -2 -2 -2 -2 -2 -2 -2
Wind_Speed
5 6 6 6 6 6 5 5 5 5 3 2 3 3 3 3 3 3 4 4 4 5 4 5 5 5 5 6 6 4 5 5 4 3 3 4 5 5 5 5 4 5 7
7 8 8 7 6 6 6 5 5 5 4 3 3 3 3 3 4 3 3 4 4 4 5 5 5 5 5 5 6 5 4 4 5 4 4 2 3 5 6 5 5 6 5
7 9 9 8 8 7 6 6 6 6 5 4 2 3 2 3 3 3 3 4 3 4 4 5 5 5 5 5 6 7 6 5 5 5 5 4 4 2 3 5 6 5 4
7 8 9 10 9 8 6 6 6 6 5 4 3 3 3 4 4 3 3 3 3 4 4 4 4 5 5 5 6 5 5 6 5 4 4 3 2 3 2 3 4 5 5
7 8 10 9 9 8 6 6 6 6 5 4 3 3 3 3 2 2 2 3 3 3 3 4 3 4 4 5 5 4 5 5 5 5 3 4 3 3 3 4 4 3 4
7 8 9 8 8 8 7 6 5 5 4 3 2 2 3 2 2 2 3 2 2 2 2 3 3 3 3 4 5 5 5 5 5 4 4 4 4 4 3 4 5 5 4
6 7 9 9 9 9 8 7 5 5 4 3 2 2 3 2 2 2 2 2 1 1 2 2 2 2 2 3 4 4 5 5 5 5 4 4 4 3 3 4 4 4 4
6 7 7 8 8 9 8 7 6 5 4 3 3 3 3 2 2 2 2 2 1 2 2 2 2 1 1 2 2 3 4 4 4 4 3 3 3 3 3 3 3 4 4
6 7 8 7 8 8 8 6 6 6 5 4 3 2 2 2 2 2 2 2 2 2 2 2 1 1 1 2 2 2 3 3 3 4 4 4 3 3 3 3 4 5 6
6 7 7 7 7 7 7 6 6 5 4 4 3 3 3 3 2 2 2 2 2 2 2 2 1 1 1 2 2 2 3 3 4 4 4 5 4 3 3 4 4 4 5
5 6 6 6 6 7 7 7 6 5 5 5 4 3 3 3 3 3 2 2 2 2 2 2 1 1 1 2 1 2 3 4 4 4 5 6 5 4 4 4 4 5 5
4 4 5 6 7 7 7 7 7 6 5 5 5 4 4 4 4 4 3 3 3 3 3 2 1 1 0 0 1 2 3 4 4 4 4 5 4 4 4 4 5 5 5
4 4 5 6 7 7 7 7 7 7 6 5 5 5 4 4 4 4 4 4 3 3 3 3 2 1 1 1 0 1 1 2 3 3 3 4 4 4 4 4 5 5 5
3 4 5 5 6 6 7 7 7 7 7 6 6 6 4 4 4 4 4 4 4 4 4 3 3 1 1 1 1 1 1 1 2 1 2 2 3 4 4 4 5 5 5
3 4 5 5 6 6 6 6 6 6 6 6 6 6 5 4 4 4 4 4 4 4 4 4 3 2 1 1 1 1 1 1 2 2 2 2 3 4 4 4 4 4 5
2 3 4 5 5 6 6 6 6 6 6 6 6 6 6 5 5 5 4 4 4 4 4 3 3 3 3 3 4 3 2 2 2 3 3 3 3 4 6 6 7 6 6
2 2 3 3 4 4 5 5 5 6 6 6 6 6 6 6 5 6 5 5 5 4 4 3 3 3 3 5 5 5 2 2 3 3 3 4 4 5 5 6 7 7 8
2 1 1 3 3 3 4 4 4 5 5 6 6 6 6 6 5 5 5 4 4 4 3 3 3 3 4 5 5 5 2 3 3 3 4 4 4 5 5 5 5 6 6
1 0 0 1 2 3 3 3 4 4 5 5 6 6 6 5 5 5 5 4 4 4 4 4 4 4 4 6 6 5 2 3 3 4 4 4 5 7 7 5 6 7 7
1 1 1 1 1 2 2 2 3 4 4 5 5 5 5 5 4 4 4 4 4 4 4 4 3 4 4 7 7 6 2 3 3 4 4 5 6 7 7 5 5 7 7
2 2 1 1 1 1 1 2 3 3 4 4 5 5 5 5 4 4 4 4 4 4 4 4 4 4 5 6 8 7 3 3 4 4 4 4 7 8 8 7 5 7 7
2 2 2 2 1 1 1 2 3 3 3 4 4 5 5 5 4 4 4 4 3 4 4 4 5 4 4 5 6 8 7 6 4 5 4 5 8 8 8 6 7 8 7
3 3 3 2 2 1 1 2 3 2 3 3 4 4 5 4 4 4 4 4 3 3 4 4 4 4 4 5 7 8 9 9 5 4 6 7 7 6 5 6 7 6 3
4 3 3 3 3 2 2 2 2 1 2 3 4 4 4 4 4 4 3 3 3 3 4 4 4 5 5 4 5 5 6 7 6 4 5 6 5 4 5 5 4 3 3
3 3 4 4 4 3 3 2 1 2 2 3 3 3 3 4 4 4 4 4 3 4 4 4 4 4 5 7 9 7 5 5 5 5 3 2 3 2 3 3 3 3 3
3 4 5 5 4 3 3 3 2 2 3 3 3 3 3 3 3 4 5 5 5 7 7 6 6 5 7 10 9 9 9 8 7 4 3 3 3 3 3 3 4 4 3
Wind_Direction
351 351 347 340 332 331 324 314 305 295 287 267 256 249 252 249 247 237 233 233 228 217 201 205 203 198 200 197 191 198 199 203 196 190 216 243 233 221 211 209 205 205 204
356 352 346 341 338 330 324 323 316 305 293 278 263 253 251 246 240 239 236 232 224 215 208 204 203 204 202 198 196 191 201 203 191 178 176 219 242 235 225 215 208 210 198
353 346 340 343 341 335 332 325 319 314 308 297 282 272 267 260 244 242 237 229 221 216 208 209 211 209 201 202 202 198 197 203 205 188 178 185 213 228 231 221 218 210 207
358 348 345 345 341 334 330 327 319 315 308 299 281 259 250 251 254 251 243 238 225 219 214 218 220 215 206 204 207 203 201 194 202 208 211 210 176 178 224 237 224 218 219
1 350 346 341 337 333 331 325 319 318 310 297 283 270 264 264 276 277 256 245 237 228 213 211 215 218 207 203 200 206 207 202 201 205 206 220 227 208 202 228 227 237 229
359 352 346 344 341 337 333 327 325 322 323 319 316 293 279 278 281 274 260 252 243 239 233 217 208 218 213 202 200 200 203 209 212 213 211 206 202 209 216 227 227 236 235
1 353 349 349 346 342 341 338 339 342 342 341 332 310 294 276 269 280 269 263 268 263 255 250 229 226 222 204 195 196 202 206 207 214 223 226 227 219 226 232 243 257 263
359 351 350 349 343 340 342 346 347 347 347 351 342 318 294 280 277 293 284 273 271 273 266 254 243 254 262 209 185 189 204 206 210 219 218 227 237 233 237 227 235 254 256
360 355 353 350 348 347 347 345 353 360 4 1 348 332 313 313 325 322 306 296 301 284 256 241 224 231 256 219 198 198 203 204 214 213 216 227 236 235 240 237 222 229 251
1 355 355 354 354 353 349 356 5 1 355 349 348 353 352 355 352 336 341 340 322 322 284 261 216 209 255 225 204 210 205 206 220 220 219 226 229 232 234 236 236 235 246
356 358 356 353 358 0 3 6 6 3 3 2 5 9 4 7 6 360 355 351 350 337 305 274 221 202 261 234 205 241 226 219 226 230 227 231 227 227 231 235 233 239 246
357 356 356 360 3 5 5 6 6 7 7 7 9 14 15 19 17 6 356 0 355 340 343 335 22 14 333 154 189 251 248 235 232 234 234 240 241 233 235 237 240 242 247
358 359 1 4 5 4 4 5 10 11 12 18 18 21 17 15 13 7 360 4 2 6 7 3 22 16 67 69 336 268 269 264 249 244 243 247 239 237 241 242 240 245 260
0 2 360 1 2 2 2 2 5 10 10 15 18 20 16 15 16 13 11 7 9 20 11 3 7 357 79 81 329 307 285 283 295 278 256 257 250 244 248 253 248 248 250
355 357 355 355 357 357 357 1 3 6 10 15 15 11 12 14 19 19 14 7 11 12 7 5 7 6 25 34 349 317 314 285 286 292 282 275 280 278 270 269 264 259 254
329 347 352 353 351 351 354 358 360 1 9 17 11 4 9 15 17 13 10 10 7 3 8 10 5 359 1 8 4 356 316 290 276 279 284 282 274 286 289 284 281 274 262
300 324 342 341 342 348 354 357 358 360 7 11 5 1 6 11 12 11 14 8 1 3 6 1 359 349 353 2 356 346 311 276 269 269 272 283 293 302 276 286 295 284 279
266 295 338 337 341 351 356 359 3 4 5 4 360 358 2 5 6 9 8 359 356 358 355 353 350 343 346 354 349 343 305 277 272 269 268 273 279 287 298 293 286 278 276
180 165 338 337 340 347 351 355 357 1 2 356 352 352 355 355 355 357 354 351 351 350 347 345 348 349 347 358 350 346 292 279 275 274 277 275 270 294 306 295 282 282 283
148 150 123 21 332 327 340 345 345 353 349 343 342 344 345 345 343 343 339 340 345 343 340 344 347 347 346 350 352 347 307 301 297 289 282 289 295 304 308 289 282 282 286
185 165 166 216 264 305 316 319 330 335 331 334 336 337 339 340 340 338 332 335 339 342 344 346 347 350 351 350 350 348 328 307 299 295 291 291 308 308 307 302 282 291 300
204 191 202 230 240 237 270 293 306 317 329 330 329 328 332 335 337 332 331 332 340 347 345 347 346 346 343 343 341 342 337 326 299 292 289 293 308 310 310 303 306 312 310
211 207 215 233 237 227 236 267 282 311 322 318 314 316 325 326 324 327 329 332 341 345 339 337 334 331 331 331 336 334 331 329 315 299 307 310 316 314 304 310 320 319 300
214 209 211 230 244 243 248 257 275 280 296 300 303 312 321 321 323 325 323 326 331 336 332 328 323 320 321 325 330 327 320 322 320 309 311 319 316 308 309 309 305 296 294
220 206 217 232 240 237 240 248 258 277 281 287 295 303 304 306 311 316 315 316 309 311 313 308 307 310 311 316 322 324 317 314 311 320 314 317 313 301 297 296 293 297 307
232 225 228 236 242 236 240 237 229 251 269 279 288 292 293 297 302 309 318 318 308 311 314 313 312 306 312 321 322 321 322 321 324 330 320 316 314 304 305 309 311 311 314
Height
1473 1471 1469 1467 1464 1462 1460 1459 1458 1457 1456 1456 1457 1458 1459 1461 1464 1466 1468 1471 1473 1475 1477 1479 1482 1485 1487 1489 1492 1494 1497 1499 1502 1503 1505 1507 1508 1510 1511 1513 1514 1515 1516
1471 1469 1466 1463 1461 1459 1457 1455 1453 1453 1452 1452 1453 1454 1455 1457 1459 1461 1463 1465 1467 1470 1472 1474 1476 1479 1482 1484 1486 1489 1492 1494 1496 1498 1499 1501 1504 1504 1506 1507 1508 1510 1511
1470 1467 1464 1461 1458 1456 1454 1452 1450 1449 1448 1448 1449 1450 1452 1453 1455 1456 1458 1460 1462 1464 1466 1468 1471 1474 1476 1478 1481 1484 1486 1488 1491 1493 1494 1495 1496 1498 1500 1501 1502 1504 1505
1468 1465 1462 1458 1455 1453 1451 1448 1446 1445 1444 1445 1445 1446 1448 1449 1450 1452 1453 1455 1457 1459 1461 1463 1466 1468 1471 1473 1476 1478 1480 1483 1485 1487 1489 1491 1491 1493 1494 1496 1497 1498 1499
1467 1464 1460 1456 1453 1450 1447 1445 1443 1442 1441 1441 1442 1443 1444 1445 1447 1448 1449 1450 1452 1454 1456 1458 1460 1462 1465 1467 1470 1473 1475 1477 1479 1481 1483 1485 1486 1487 1488 1488 1490 1491 1492
1466 1463 1458 1454 1451 1448 1445 1442 1441 1439 1438 1438 1439 1440 1441 1442 1444 1444 1445 1446 1447 1449 1451 1453 1455 1457 1459 1462 1465 1467 1469 1471 1474 1476 1478 1480 1481 1482 1482 1482 1483 1483 1484
1465 1461 1457 1453 1449 1446 1443 1441 1439 1437 1436 1436 1436 1437 1438 1440 1440 1441 1442 1442 1443 1445 1447 1448 1450 1452 1454 1456 1459 1462 1464 1466 1468 1470 1472 1474 1476 1477 1477 1478 1477 1477 1478
1464 1461 1457 1453 1449 1446 1443 1441 1438 1436 1435 1434 1435 1436 1437 1438 1438 1438 1439 1439 1439 1441 1443 1444 1446 1447 1449 1451 1453 1456 1458 1460 1462 1464 1466 1468 1470 1471 1472 1472 1472 1472 1471
1464 1460 1457 1453 1450 1446 1443 1441 1438 1436 1435 1434 1434 1434 1435 1435 1435 1436 1436 1436 1437 1438 1439 1440 1441 1443 1445 1447 1448 1450 1452 1455 1457 1458 1460 1462 1463 1465 1466 1467 1467 1467 1465
1463 1460 1457 1453 1450 1447 1444 1440 1438 1436 1435 1434 1433 1433 1433 1433 1433 1434 1433 1433 1434 1434 1435 1435 1437 1439 1440 1442 1444 1446 1447 1449 1451 1453 1455 1456 1457 1459 1460 1461 1461 1461 1461
1463 1460 1457 1454 1451 1447 1444 1441 1438 1436 1434 1433 1432 1432 1432 1432 1432 1431 1431 1431 1431 1432 1431 1432 1433 1434 1436 1438 1439 1441 1442 1444 1445 1447 1449 1450 1451 1453 1454 1454 1455 1455 1455
1463 1460 1458 1454 1451 1447 1444 1441 1438 1436 1434 1433 1432 1431 1430 1430 1430 1430 1429 1429 1429 1428 1428 1429 1429 1431 1432 1433 1435 1436 1438 1439 1440 1441 1442 1444 1446 1447 1447 1448 1448 1448 1448
1463 1460 1458 1455 1451 1448 1445 1442 1439 1436 1434 1432 1431 1429 1429 1428 1428 1428 1427 1427 1426 1426 1426 1426 1426 1427 1428 1430 1431 1432 1433 1434 1434 1435 1436 1438 1439 1439 1440 1440 1441 1441 1441
1462 1460 1458 1455 1452 1449 1446 1443 1440 1437 1435 1432 1431 1429 1428 1427 1427 1427 1426 1425 1424 1423 1424 1424 1424 1425 1425 1426 1427 1428 1428 1428 1429 1430 1431 1431 1432 1433 1433 1434 1434 1434 1434
1462 1460 1458 1455 1453 1450 1447 1444 1441 1438 1436 1433 1431 1429 1428 1427 1426 1425 1425 1424 1423 1423 1422 1422 1421 1422 1422 1422 1423 1423 1423 1423 1424 1424 1425 1426 1427 1427 1427 1427 1427 1427 1427
1461 1459 1457 1455 1453 1450 1447 1445 1442 1439 1437 1434 1432 1430 1428 1427 1426 1425 1424 1423 1422 1422 1421 1420 1419 1419 1419 1419 1419 1419 1419 1419 1419 1420 1420 1420 1421 1421 1421 1421 1421 1422 1421
1459 1458 1456 1455 1453 1450 1448 1445 1442 1440 1437 1434 1432 1430 1429 1427 1425 1424 1423 1422 1422 1420 1419 1419 1418 1417 1416 1416 1416 1416 1416 1416 1415 1415 1415 1415 1416 1416 1415 1415 1415 1415 1415
1458 1457 1455 1453 1452 1450 1448 1445 1442 1440 1437 1435 1433 1431 1429 1427 1425 1424 1423 1422 1421 1420 1418 1417 1416 1415 1413 1412 1412 1412 1412 1412 1412 1411 1411 1411 1411 1410 1410 1409 1409 1408 1408
1456 1455 1454 1453 1451 1449 1447 1445 1442 1440 1437 1435 1433 1431 1429 1427 1425 1424 1422 1421 1420 1418 1417 1416 1414 1412 1411 1409 1409 1409 1408 1408 1408 1407 1407 1407 1406 1405 1405 1404 1403 1402 1401
1454 1453 1452 1451 1449 1448 1446 1444 1442 1440 1438 1435 1433 1431 1429 1427 1425 1423 1422 1420 1419 1417 1415 1414 1412 1410 1408 1407 1406 1406 1405 1404 1403 1403 1403 1402 1401 1401 1400 1399 1398 1396 1394
1452 1451 1450 1449 1448 1446 1445 1443 1441 1439 1437 1435 1433 1431 1429 1427 1425 1423 1421 1420 1418 1416 1414 1412 1410 1408 1407 1405 1404 1403 1402 1401 1400 1399 1398 1397 1397 1396 1395 1394 1393 1391 1390
1449 1448 1447 1446 1446 1445 1443 1442 1440 1439 1437 1435 1433 1431 1429 1427 1425 1422 1420 1418 1416 1414 1412 1410 1408 1406 1405 1404 1402 1401 1400 1399 1397 1396 1394 1393 1392 1391 1390 1389 1388 1387 1385
1446 1446 1445 1444 1443 1442 1441 1440 1438 1437 1435 1433 1431 1429 1427 1425 1424 1421 1419 1417 1415 1412 1410 1408 1406 1404 1403 1401 1400 1398 1397 1395 1394 1392 1391 1389 1388 1387 1386 1385 1383 1382 1380
1443 1443 1442 1441 1440 1440 1439 1438 1436 1435 1433 1431 1429 1428 1426 1424 1422 1420 1418 1416 1413 1411 1409 1407 1405 1402 1400 1399 1397 1395 1393 1391 1390 1388 1387 1385 1384 1383 1382 1380 1379 1378 1376
1440 1439 1439 1438 1437 1436 1435 1435 1433 1432 1430 1429 1427 1425 1424 1422 1420 1418 1416 1414 1412 1410 1408 1406 1403 1401 1398 1396 1394 1392 1390 1388 1386 1385 1383 1381 1379 1378 1377 1376 1375 1374 1373
1436 1436 1435 1434 1434 1433 1432 1431 1430 1429 1427 1426 1424 1423 1421 1419 1418 1416 1414 1412 1411 1408 1406 1404 1402 1399 1397 1394 1391 1389 1387 1385 1383 1381 1379 1377 1376 1374 1373 1372 1371 1371 1369